www.pogodaiklimat.ru
ПОГОДА в Уильямспорте
Время
и дата
00:54 18.06
01:09 18.06
01:12 18.06
01:25 18.06
01:45 18.06
01:50 18.06
01:54 18.06
02:10 18.06
02:26 18.06
02:54 18.06
03:46 18.06
03:54 18.06
04:02 18.06
04:54 18.06
05:41 18.06
05:54 18.06
06:07 18.06
06:22 18.06
06:31 18.06
06:41 18.06
06:54 18.06
07:04 18.06
07:54 18.06
08:54 18.06
09:54 18.06
10:54 18.06
11:54 18.06
12:54 18.06
13:54 18.06
14:54 18.06
15:54 18.06
16:54 18.06
17:54 18.06
19:54 18.06
20:54 18.06
21:54 18.06
22:54 18.06
23:54 18.06
00:54 19.06
01:54 19.06
02:54 19.06
03:54 19.06
04:54 19.06
05:54 19.06
06:54 19.06
07:54 19.06
08:54 19.06
09:54 19.06
Ветер
(напр.,м/с)
Видим. Явления Облачность Т
(С)
Тd
(С)
f
(%)
Тe
(С)
Тes
(С)
Комфортность P
(гПа)
Po
(гПа)
Тmin
(С)
Tmax
(С)
R
(мм)
R24
(мм)
S
(см)
штиль 0 13 км ясно +21.1 +20.6 97 +26 +26 душно 1020.5 1001.5 +21.1 +30.6 4.6
З 2 3 км дымка 2/2 120 м +20.6 +20.6 100 +26 +26 душно 1001.5
З 2 1 км дымка ?/? +20.6 +20.0 96 +26 +26 душно 1001.5
штиль 0 400 м туман ?/? +20.6 +20.0 96 +25 +25 комфорт 1001.5
штиль 0 2 км дымка 8/8 120 м +20.6 +20.6 100 +25 +25 комфорт 1001.5
штиль 0 5 км дымка 8/8 120 м +21.0 +20.0 94 +26 +26 душно 1001.5
штиль 0 8 км дымка 10/10 120 м +20.6 +20.0 96 +25 +25 комфорт 1020.6 1001.5
штиль 0 3 км дымка 8/8 120 м +20.6 +20.0 96 +25 +25 комфорт 1001.5
штиль 0 6 км дымка 8/8 120 м +20.6 +20.0 96 +25 +25 комфорт 1001.5
С 2 6 км дымка 10/10 90 м +20.6 +20.0 96 +26 +26 душно 1020.7 1001.9
штиль 0 3 км дымка 10/10 90 м +20.6 +20.0 96 +25 +25 комфорт 1001.9
С 2 3 км дымка 10/10 90 м +20.6 +20.0 96 +26 +26 душно 1021.0 1001.9
штиль 0 6 км дымка 10/10 90 м +20.6 +20.0 96 +25 +25 комфорт 1002.2
нст 2 8 км дымка 10/10 90 м +20.6 +19.4 93 +25 +25 комфорт 1021.5 1002.5
штиль 0 10 км дымка 8/8 150 м +21.1 +19.4 90 +26 +26 душно 1002.9
штиль 0 11 км 8/8 150 м +21.1 +20.0 93 +26 +26 душно 1022.4 1003.2
С 2 5 км дымка 5/5 150 м +21.1 +20.0 93 +26 +26 душно 1003.5
штиль 0 5 км дымка 8/8 180 м +21.7 +20.0 90 +27 +27 душно 1003.5
штиль 0 5 км дымка 5/5 180 м +21.7 +20.0 90 +27 +28 душно 1003.5
штиль 0 5 км дымка 8/8 180 м +22.2 +20.0 87 +28 +28 душно 1003.5
штиль 0 5 км дымка 8/8 180 м +22.2 +20.6 91 +29 +29 очень
душно
1022.6 1003.5 +20.0 +22.2 4.6
штиль 0 13 км 2/2 180 м +22.2 +20.6 91 +29 +33 очень
душно
1003.5
штиль 0 16 км ясно +24.4 +21.1 82 +31 +36 очень
душно
1023.0 1004.2
нст 3 16 км ясно +26.1 +21.7 77 +34 +40 очень
душно
1023.2 1004.2
ЮВ 2 16 км ясно +28.3 +22.8 72 +38 +50 очень
душно
1023.2 1004.2
ЮВ 2 16 км ясно +29.4 +22.8 68 +39 +55 опасность
солнечного
удара
1022.7 1003.5
ЮВ 2 16 км ясно +31.7 +23.3 61 +42 +61 опасность
перегрева
1022.3 1003.2
ЮВ 2 16 км ясно +32.2 +22.8 58 +42 +62 опасность
перегрева
1021.9 1002.9 +22.2 +32.8
ЮВ 3 16 км ясно +32.8 +21.1 50 +40 +56 опасность
солнечного
удара
1021.7 1002.5
Ю 3 16 км ясно +32.8 +21.7 52 +41 +55 опасность
перегрева
1021.1 1002.2
ЮВ 3 16 км ясно +33.9 +22.2 51 +43 +54 опасность
перегрева
1020.6 1001.9
ЮВ 6
{10}
16 км 2/2 1500 м +32.2 +22.2 56 +41 +44 опасность
перегрева
1020.9 1001.9
нст 2 16 км ясно +31.1 +21.7 57 +39 +44 очень
душно
1021.3 1002.2
штиль 0 16 км ясно +27.2 +22.8 77 +36 +36 очень
душно
1021.8 1002.9
штиль 0 16 км ясно +26.1 +22.8 82 +35 +35 очень
душно
1022.5 1003.5
В 3 16 км ясно +26.1 +22.2 79 +34 +34 очень
душно
1023.0 1003.9
В 3 16 км ясно +26.7 +21.7 74 +34 +34 очень
душно
1023.3 1004.2
В 2 16 км ясно +25.6 +21.1 76 +32 +32 очень
душно
1023.3 1004.2
штиль 0 16 км ясно +24.4 +21.7 85 +31 +31 очень
душно
1023.7 1004.9 +24.4 +30.0
СЗ 2 16 км ясно +23.3 +21.1 87 +31 +31 очень
душно
1023.8 1004.9
штиль 0 16 км ясно +22.8 +21.1 90 +30 +30 очень
душно
1023.9 1004.9
штиль 0 16 км ясно +22.8 +21.1 90 +30 +30 очень
душно
1024.7 1005.8
штиль 0 14 км ясно +22.8 +20.6 87 +30 +30 очень
душно
1025.4 1006.5
В 3 14 км ясно +22.8 +20.6 87 +30 +30 очень
душно
1025.8 1006.8
ЮВ 3 16 км ясно +25.6 +20.6 74 +32 +33 очень
душно
1026.2 1007.2 +22.2 +25.6
В 3 16 км ясно +27.2 +21.1 69 +34 +37 очень
душно
1026.5 1007.5
В 3 16 км ясно +28.3 +21.1 65 +36 +42 очень
душно
1026.4 1007.5
Ю 2 16 км ясно +29.4 +21.7 63 +37 +49 очень
душно
1026.4 1007.5
Местоположение метеостанции Williamsport Regional Airport: широта 41.2417 долгота -76.9208 высота над уровнем моря 161 м.
В архиве по умолчанию представлена погода в Уильямспорте за последние 1-2 суток. Обновление информации о фактической погоде в базе происходит ежечасно! Архивные данные за месяц целиком и за предыдущие месяцы Вы можете получить, выбрав интересующий диапазон дат из раскрывающегося списка и нажав кнопку "Ввод!".
Внимание! Архив погоды МЕТАР в базе сайта по станциям, не включенным в климатический монитор, хранится не более 60 дней. Нет смысла пытаться выбрать более раннюю дату.
*Определитесь, кто Вы:
Внимание! Время в таблицах - местное (без учета летнего времени). Для получения всемирного времени необходимо вычесть поправку, которая равна -5 ч.
Смотрите также архив погоды в соседних городах и на ближайших метеорологических станциях:
Партнеры нашего сайта:      
Пояснения к столбцам:
  • Ветер - указаны скорость ветра в м/с - средняя за 10 мин, порывы в срок и между сроками (в фигурных скобках) и направление, откуда дует ветер: С - северный,
  • СВ - северо-восточный, В - восточный, ЮВ - юго-восточный, Ю - южный, ЮЗ - юго-западный, З - западный, СЗ - северо-западный.
  • Видимость - горизонтальная дальность видимости в метрах или километрах. При видимости от 1 до 10 км при отсутствии осадков обычно наблюдается дымка, при ухудшении видимости до 1 км и менее - туман. В сухую погоду видимость может ухудшаться дымом, пылью или мглою.
  • Явления - указаны атмосферные явления, наблюдавшиеся в срок или в последний час перед сроком; фигурными скобками обозначены явления, наблюдавшиеся между сроками (за 1-3 часа до срока); квадратными скобками обозначены град или гололедные отложения с указанием их диаметра в мм.
  • Облачность - указаны через наклонную черту общая и нижняя облачность в баллах и высота нижней границы облаков в метрах; квадратными скобками обозначены формы облаков: Ci - перистые, Cs - перисто-слоистые, Cc - перисто-кучевые, Ac - высококучевые, As - высокослоистые, Sc - слоисто-кучевые, Ns - слоисто-дождевые, Cu - кучевые, Cb - кучево-дождевые. Подробнее классификацию облаков см. в Атласе облаков (PDF).
  • T - Температура воздуха - температура, измеренная на высоте 2 м над землей.
  • Td - Температура точки росы - температура, при понижении до которой содержащийся в воздухе водяной пар достигнет насыщения.
  • f - Относительная влажность воздуха - влажноcть воздуха, измеренная на высоте 2 м над землей.
  • Te - Эффективная температура - температура, которую ощущает одетый по сезону человек в тени. Характеристика душности погоды. При расчете учитывается влияние влажности воздуха и скорости ветра на теплоощущения человека.
  • Tes - Эффективная температура на солнце - температура, которую ощущает человек, с поправкой на солнечный нагрев. Характеристика знойности погоды. Зависит от высоты солнца над горизонтом, облачности и скорости ветра. Ночью, в пасмурную погоду, а также при ветре 12 м/с и более поправка равна нулю.
  • P - Атмосферное давление - приведенное к уровню моря атмосферное давление.
  • Po - Атмосферное давление - измеренное на уровне метеостанции атмосферное давление.
  • Tmin - Минимальная температура - минимум температуры воздуха на высоте 2 м над землей.
  • Tmax - Максимальная температура - максимум температуры воздуха на высоте 2 м над землей.
  • R - Количество осадков - Количество выпавших осадков за период времени, мм. При наведении курсора мыши на число - период времени, за который выпало указанное количество осадков.
  • R24 - Количество осадков - Количество выпавших осадков за 24 часа, мм.
  • S - Снежный покров - Высота снежного покрова, см. При наведении курсора мыши на число - состояние снежного покрова и степень покрытия местности в баллах.